Weather History for Redmond, OR

Change the Weather History Date:

Saturday, December 1, 2012

  Actual Average Record
Temperature  
Mean Temperature 44 °F 32 °F  
Max Temperature 49 °F 43 °F 67 °F (2008)
Min Temperature 38 °F 22 °F 4 °F (1985)
Degree Days  
Heating Degree Days 21 33  
Month to date heating degree days 21 33  
Since 1 July heating degree days 1554 1807  
Cooling Degree Days 0 0  
Month to date cooling degree days 0 0  
Year to date cooling degree days 206 222  
Moisture  
Dew Point 36 °F    
Average Humidity 72    
Maximum Humidity 89    
Minimum Humidity 54    
Precipitation  
Precipitation 0.28 in 0.04 in 0.77 in (1987)
Month to date precipitation 0.28 0.04  
Year to date precipitation 10.22 7.78  
Sea Level Pressure  
Sea Level Pressure 29.62 in    
Wind  
Wind Speed 10 mph (South)    
Max Wind Speed 35 mph    
Max Gust Speed 48 mph    
Visibility 10 miles    
Events Rain    
T = Trace of Precipitation, MM = Missing Value Source: NWS Daily Summary

Daily Weather History Graph

Daily Weather History Graph

Search for Another Location

Airport:

Trip Planner

Search our weather history database for the weather conditions in past years. The results will help you decide how hot, cold, wet, or windy it might be!

Date:

Astronomy

Dec. 01, 2012 Rise Set
Actual Time 7:20 AM PST 4:26 PM PST
Civil Twilight 6:48 AM PST 4:59 PM PST
Nautical Twilight 6:11 AM PST 5:35 PM PST
Astronomical Twilight 5:37 AM PST 6:10 PM PST
Moon 7:23 PM PST (12/1) 9:35 AM PST (12/1)
Length of Visible Light 10h 11m
Length of Day
9h 06m
Waning Gibbous, 91% of the Moon is Illuminated
Dec 1
Waning Gibbous
Dec 6
Last Quarter
Dec 13
New
Dec 19
First Quarter
Dec 28
Full

Hourly Weather History & Observations

Time (PST) Temp. Windchill Dew Point Humidity Pressure Visibility Wind Dir Wind Speed Gust Speed Precip Events Conditions
1:56 AM 48.0 °F - 32.0 °F 54% 29.53 in 10.0 mi SSW 24.2 mph 41.4 mph N/A   Scattered Clouds
2:56 AM 44.1 °F 37.4 °F 36.0 °F 73% 29.60 in 10.0 mi SW 13.8 mph 18.4 mph 0.00 in   Overcast
3:56 AM 39.9 °F 33.4 °F 35.1 °F 83% 29.64 in 10.0 mi SSW 10.4 mph - 0.00 in   Mostly Cloudy
4:08 AM 39.2 °F 34.2 °F 35.6 °F 87% 29.64 in 10.0 mi SSW 6.9 mph - N/A   Scattered Clouds
4:56 AM 39.9 °F 35.1 °F 35.1 °F 83% 29.67 in 10.0 mi South 6.9 mph - 0.00 in   Overcast
5:56 AM 39.9 °F 34.5 °F 34.0 °F 79% 29.68 in 10.0 mi South 8.1 mph - N/A   Mostly Cloudy
6:56 AM 39.9 °F 33.4 °F 33.1 °F 77% 29.70 in 10.0 mi SE 10.4 mph - N/A   Scattered Clouds
8:56 AM 44.1 °F 35.9 °F 32.0 °F 63% 29.75 in 10.0 mi South 19.6 mph 26.5 mph N/A   Mostly Cloudy
9:56 AM 45.0 °F 37.6 °F 32.0 °F 60% 29.76 in 10.0 mi South 17.3 mph 27.6 mph N/A   Mostly Cloudy
10:56 AM 46.0 °F 39.0 °F 32.0 °F 58% 29.75 in 10.0 mi South 17.3 mph 28.8 mph N/A   Mostly Cloudy
11:56 AM 46.0 °F 38.8 °F 33.1 °F 61% 29.73 in 10.0 mi South 18.4 mph 24.2 mph N/A   Mostly Cloudy
12:56 PM 48.0 °F - 34.0 °F 58% 29.69 in 10.0 mi South 12.7 mph 21.9 mph N/A   Overcast
1:56 PM 48.0 °F - 35.1 °F 61% 29.68 in 10.0 mi SSW 10.4 mph - N/A   Overcast
2:56 PM 48.0 °F - 35.1 °F 61% 29.67 in 10.0 mi South 9.2 mph - N/A   Overcast
3:56 PM 46.9 °F - 37.0 °F 68% 29.66 in 10.0 mi South 12.7 mph - N/A   Overcast
4:56 PM 45.0 °F 41.2 °F 37.0 °F 74% 29.64 in 10.0 mi South 6.9 mph - N/A   Overcast
5:56 PM 43.0 °F 40.3 °F 39.0 °F 86% 29.62 in 10.0 mi South 4.6 mph - 0.00 in Rain Light Rain
6:56 PM 42.1 °F - 39.9 °F 92% 29.61 in 10.0 mi Calm Calm - 0.00 in Rain Light Rain
7:56 PM 43.0 °F 39.5 °F 39.0 °F 86% 29.57 in 10.0 mi South 5.8 mph - 0.01 in Rain Light Rain
8:56 PM 42.1 °F 39.2 °F 39.0 °F 89% 29.52 in 10.0 mi SE 4.6 mph - 0.00 in   Overcast
9:56 PM 42.1 °F - 37.9 °F 85% 29.46 in 10.0 mi Calm Calm - 0.02 in Rain Light Rain
10:56 PM 42.1 °F 40.2 °F 39.9 °F 92% 29.40 in 10.0 mi North 3.5 mph - 0.06 in Rain Light Rain
11:56 PM 43.0 °F 41.3 °F 39.9 °F 89% 29.33 in 5.0 mi Variable 3.5 mph - 0.19 in Rain Rain